ヘリン-ローマン-アルー第2彗星

132P/Helin-Roman-Alu 2 (2006)

English version
Home page
Updated on May 3, 2020

---------------------------------------------------------------------

・ プロフィール

・ 写真集

・ 軌道要素

Epoch 2006 Mar. 6.0 TT = JDT 2453800.5
T 2006 Feb. 14.9934 TT                                  MPCN
q   1.924163             (2000.0)            P               Q
n   0.1189859      Peri.  221.0984      +0.7716850      -0.6359987
a   4.093918       Node   178.3877      +0.6066383      +0.7347114
e   0.529995       Incl.    5.7659      +0.1910293      +0.2360188
P   8.28
From 122 observations 1989-1998, mean residual 0".7.

・ 星図

・ 光度変化

        m1 = 8.0 + 5 logΔ + 27.5 log r

---------------------------------------------------------------------

軌道要素はMPCのEphemerides and Orbital Elementsに掲載されたものです。
星図は StellaNavigator Ver.2.0 for Windows (アストロアーツ 編著 / アスキー出版局刊) で作成したものです。
光度グラフはComet for Windowsで作成したものです。

---------------------------------------------------------------------

Copyright(C) Seiichi Yoshida (comet@aerith.net). All rights reserved.